When you browse on this site, cookies collect data to enhance your experience and personalize the content and advertising you see.
Visit our Privacy Policy to learn more. By continuing to use the site, you agree to this use of cookies and data.
  • In Portugal
  • List of Countries
  • For 7 days
  • Water Temperature
  • Weather Map
  • Weather Widgets
  • user-avatar
    Login

    Hourly Weather Podsinee

    Today, 5 June, Friday

    Time Temperature Precipitation Wind Pressure Humidity
    00:00 +10°C° 0 mm 1 mps 733 mmHg 83%
    01:00 +10°C° 0 mm 1 mps 733 mmHg 84%
    02:00 +10°C° 0 mm 1 mps 733 mmHg 84%
    03:00 +9°C° 0 mm 1 mps 732 mmHg 85%
    04:00 +10°C° 0.5 mm 1 mps 732 mmHg 86%
    05:00 +10°C° 0.5 mm 1 mps 732 mmHg 87%
    06:00 +11°C° 0 mm 1 mps 731 mmHg 82%
    07:00 +12°C° 0 mm 1 mps 731 mmHg 80%
    08:00 +13°C° 0 mm 2 mps 731 mmHg 78%
    09:00 +13°C° 0 mm 2 mps 730 mmHg 76%
    10:00 +14°C° 0.1 mm 2 mps 730 mmHg 72%
    11:00 +15°C° 0.1 mm 2 mps 729 mmHg 68%
    12:00 +16°C° 0 mm 3 mps 729 mmHg 64%
    13:00 +15°C° 0.1 mm 4 mps 729 mmHg 66%
    14:00 +15°C° 0.1 mm 4 mps 728 mmHg 67%
    15:00 +15°C° 0.1 mm 5 mps 728 mmHg 68%
    16:00 +14°C° 0 mm 5 mps 728 mmHg 70%
    17:00 +13°C° 0 mm 5 mps 729 mmHg 72%
    18:00 +12°C° 0 mm 5 mps 731 mmHg 72%
    19:00 +11°C° 0.2 mm 4 mps 731 mmHg 75%
    20:00 +11°C° 0.2 mm 3 mps 731 mmHg 78%
    21:00 +10°C° 0.2 mm 3 mps 732 mmHg 81%
    22:00 +10°C° 0 mm 3 mps 732 mmHg 82%
    23:00 +8°C° 0 mm 4 mps 732 mmHg 82%

    Tomorrow, 6 June, Saturday

    Time Temperature Precipitation Wind Pressure Humidity
    00:00 +8°C° 0 mm 5 mps 732 mmHg 83%
    01:00 +8°C° 0 mm 5 mps 732 mmHg 83%
    02:00 +7°C° 0 mm 5 mps 732 mmHg 83%
    03:00 +7°C° 0 mm 5 mps 732 mmHg 83%
    04:00 +7°C° 0.1 mm 6 mps 732 mmHg 83%
    05:00 +8°C° 0.1 mm 6 mps 733 mmHg 82%
    06:00 +8°C° 0.1 mm 7 mps 734 mmHg 81%
    07:00 +8°C° 0.3 mm 7 mps 734 mmHg 82%
    08:00 +8°C° 0.3 mm 7 mps 734 mmHg 82%
    09:00 +8°C° 0.3 mm 7 mps 735 mmHg 82%
    10:00 +8°C° 1.2 mm 7 mps 735 mmHg 84%
    11:00 +6°C° 1.2 mm 7 mps 736 mmHg 85%
    12:00 +6°C° 1.2 mm 8 mps 736 mmHg 87%
    13:00 +6°C° 3.4 mm 7 mps 736 mmHg 88%
    14:00 +6°C° 3.4 mm 7 mps 736 mmHg 89%
    15:00 +6°C° 3.4 mm 7 mps 736 mmHg 91%
    16:00 +6°C° 3.4 mm 7 mps 737 mmHg 91%
    17:00 +8°C° 3.4 mm 7 mps 738 mmHg 91%
    18:00 +8°C° 3.4 mm 6 mps 738 mmHg 91%
    19:00 +8°C° 2.1 mm 6 mps 738 mmHg 92%
    20:00 +8°C° 2.1 mm 5 mps 739 mmHg 93%
    21:00 +8°C° 2.1 mm 4 mps 739 mmHg 93%
    22:00 +8°C° 0.4 mm 4 mps 739 mmHg 92%
    23:00 +8°C° 0.4 mm 4 mps 739 mmHg 91%

    Day after tomorrow, 7 June, Sunday

    Time Temperature Precipitation Wind Pressure Humidity
    00:00 +8°C° 0.4 mm 4 mps 740 mmHg 89%
    01:00 +9°C° 0 mm 3 mps 740 mmHg 90%
    02:00 +8°C° 0 mm 3 mps 740 mmHg 90%
    03:00 +8°C° 0 mm 3 mps 740 mmHg 90%
    04:00 +8°C° 0 mm 3 mps 740 mmHg 89%
    05:00 +9°C° 0 mm 3 mps 740 mmHg 87%
    06:00 +10°C° 0 mm 3 mps 740 mmHg 86%
    07:00 +10°C° 0.3 mm 3 mps 740 mmHg 84%
    08:00 +11°C° 0.3 mm 3 mps 740 mmHg 82%
    09:00 +12°C° 0.3 mm 4 mps 740 mmHg 80%
    10:00 +12°C° 1.1 mm 4 mps 739 mmHg 81%
    11:00 +12°C° 1.1 mm 5 mps 739 mmHg 82%
    12:00 +12°C° 1.1 mm 5 mps 739 mmHg 84%
    13:00 +13°C° 0.2 mm 5 mps 739 mmHg 80%
    14:00 +14°C° 0.2 mm 5 mps 739 mmHg 76%
    15:00 +14°C° 0.2 mm 5 mps 739 mmHg 72%
    16:00 +15°C° 0.9 mm 4 mps 739 mmHg 73%
    17:00 +15°C° 0.9 mm 4 mps 739 mmHg 73%
    18:00 +15°C° 0.9 mm 4 mps 739 mmHg 74%
    19:00 +13°C° 0.7 mm 3 mps 739 mmHg 78%
    20:00 +12°C° 0.7 mm 3 mps 739 mmHg 82%
    21:00 +11°C° 0.7 mm 3 mps 739 mmHg 86%
    22:00 +10°C° 0.5 mm 3 mps 739 mmHg 88%
    23:00 +10°C° 0.5 mm 3 mps 739 mmHg 90%

    8 June, Monday

    Time Temperature Precipitation Wind Pressure Humidity
    00:00 +9°C° 0.5 mm 3 mps 739 mmHg 92%
    01:00 +9°C° 0.1 mm 2 mps 739 mmHg 91%
    02:00 +8°C° 0.1 mm 2 mps 739 mmHg 91%
    03:00 +8°C° 0.1 mm 2 mps 739 mmHg 90%
    04:00 +9°C° 0.1 mm 2 mps 739 mmHg 86%
    05:00 +10°C° 0.1 mm 2 mps 740 mmHg 83%
    06:00 +12°C° 0.1 mm 2 mps 740 mmHg 79%
    07:00 +13°C° 0.3 mm 2 mps 740 mmHg 72%
    08:00 +13°C° 0.3 mm 3 mps 740 mmHg 64%
    09:00 +15°C° 0.3 mm 4 mps 740 mmHg 57%
    10:00 +16°C° 0.1 mm 3 mps 740 mmHg 54%
    11:00 +17°C° 0.1 mm 3 mps 740 mmHg 51%
    12:00 +17°C° 0.1 mm 3 mps 740 mmHg 49%
    13:00 +17°C° 0 mm 3 mps 740 mmHg 48%
    14:00 +18°C° 0 mm 2 mps 740 mmHg 47%
    15:00 +18°C° 0 mm 2 mps 740 mmHg 46%
    16:00 +18°C° 0 mm 2 mps 740 mmHg 51%
    17:00 +17°C° 0 mm 2 mps 740 mmHg 55%
    18:00 +17°C° 0 mm 2 mps 740 mmHg 60%
    19:00 +16°C° 0 mm 2 mps 740 mmHg 64%
    20:00 +14°C° 0 mm 2 mps 740 mmHg 68%
    21:00 +12°C° 0 mm 3 mps 740 mmHg 71%
    22:00 +12°C° 0 mm 3 mps 739 mmHg 70%
    23:00 +12°C° 0 mm 3 mps 739 mmHg 68%

    9 June, Tuesday

    Time Temperature Precipitation Wind Pressure Humidity
    00:00 +12°C° 0 mm 3 mps 739 mmHg 67%
    01:00 +10°C° 1.6 mm 5 mps 738 mmHg 75%
    02:00 +10°C° 1.6 mm 7 mps 738 mmHg 84%
    03:00 +9°C° 1.6 mm 8 mps 737 mmHg 92%
    04:00 +9°C° 1.7 mm 8 mps 737 mmHg 91%
    05:00 +10°C° 1.7 mm 7 mps 737 mmHg 91%
    06:00 +10°C° 1.7 mm 6 mps 736 mmHg 90%
    07:00 +10°C° 0.7 mm 6 mps 736 mmHg 90%
    08:00 +11°C° 0.7 mm 6 mps 736 mmHg 91%
    09:00 +11°C° 0.7 mm 7 mps 736 mmHg 92%
    10:00 +12°C° 0.4 mm 7 mps 736 mmHg 91%
    11:00 +12°C° 0.4 mm 7 mps 736 mmHg 90%
    12:00 +14°C° 0.4 mm 7 mps 736 mmHg 89%
    13:00 +15°C° 0.7 mm 7 mps 736 mmHg 84%
    14:00 +17°C° 0.7 mm 7 mps 736 mmHg 79%
    15:00 +18°C° 0.7 mm 7 mps 736 mmHg 74%
    16:00 +19°C° 1.2 mm 6 mps 736 mmHg 77%
    17:00 +17°C° 1.2 mm 5 mps 736 mmHg 81%
    18:00 +17°C° 1.2 mm 4 mps 736 mmHg 84%
    19:00 +17°C° 0.6 mm 3 mps 736 mmHg 86%
    20:00 +16°C° 0.6 mm 3 mps 736 mmHg 88%
    21:00 +15°C° 0.6 mm 2 mps 736 mmHg 90%
    22:00 +15°C° 0.4 mm 2 mps 735 mmHg 92%
    23:00 +15°C° 0.4 mm 2 mps 735 mmHg 93%

    10 June, Wednesday

    Time Temperature Precipitation Wind Pressure Humidity
    00:00 +14°C° 0.4 mm 2 mps 735 mmHg 95%
    01:00 +14°C° 1.2 mm 2 mps 735 mmHg 95%
    02:00 +14°C° 1.2 mm 2 mps 735 mmHg 96%
    03:00 +13°C° 1.2 mm 2 mps 734 mmHg 96%
    04:00 +13°C° 1 mm 2 mps 734 mmHg 96%
    05:00 +13°C° 1 mm 2 mps 734 mmHg 96%
    06:00 +13°C° 1 mm 2 mps 734 mmHg 95%
    07:00 +13°C° 0.5 mm 2 mps 734 mmHg 94%
    08:00 +12°C° 0.5 mm 2 mps 734 mmHg 92%
    09:00 +12°C° 0.5 mm 2 mps 734 mmHg 91%
    10:00 +13°C° 1.4 mm 2 mps 735 mmHg 90%
    11:00 +13°C° 1.4 mm 2 mps 735 mmHg 88%
    12:00 +12°C° 1.4 mm 3 mps 735 mmHg 87%
    13:00 +13°C° 0.1 mm 3 mps 736 mmHg 83%
    14:00 +14°C° 0.1 mm 4 mps 736 mmHg 79%
    15:00 +15°C° 0.1 mm 4 mps 737 mmHg 74%
    16:00 +15°C° 0 mm 4 mps 737 mmHg 75%
    17:00 +15°C° 0 mm 4 mps 737 mmHg 76%
    18:00 +15°C° 0 mm 4 mps 737 mmHg 77%
    19:00 +14°C° 0 mm 3 mps 737 mmHg 82%
    20:00 +12°C° 0 mm 3 mps 737 mmHg 86%
    21:00 +11°C° 0 mm 3 mps 737 mmHg 91%
    22:00 +11°C° 0 mm 3 mps 737 mmHg 89%
    23:00 +11°C° 0 mm 3 mps 737 mmHg 87%
    Show more